Погода в Зелёном Яре

Россия / Ямало-Ненецкий автономный округ     66°19′20″N   67°20′23″E
темп.,
°C
ветер,
м/с
пор.,
м/с
влажн.,
%
обл.,
%
осадки,
мм/ч
давл.,
гПа
погр.,
м
22 апреля, чт
чт2223:00+1зюз5691100 0.0 1029192
02:00+1юз5793100 0.0 1029203
05:00+1ююз3798100 0.0 1029169
08:00+1ююз59100100 0.0 1028240
11:00+1ююз612100100 0.0 1027238
14:00+3ююз812100100 0.0 1027275
17:00+3ююз613100100 0.0 1026228
20:00+3ю61598100 0.0 1026244
23 апреля, пт
пт2323:00+3ю81790100 0.0 1024287
02:00+3ююз91788100 0.0 1023326
05:00+2ююз7149093 0.0 1023250
08:00+2ююз612100100 0.0 1023236
11:00+3ююз612100100 0.0 1023269
14:00+5юз51094100 0.1 1023238
17:00+5ююз4888100 0.1 1023106
20:00+3ююз6129256 0.0 1023162
24 апреля, сб
сб2423:00+2юз511935 0.0 1023142
02:00+1юз58939 0.0 1023104
05:00+1зюз598927 0.0 1023118
08:00+3з510925 0.0 1024293
11:00+6зсз58685 0.0 1025662
14:00+7зсз45635 0.0 1025874
17:00+6ссз33655 0.0 1027618
20:00+3ссв33814 0.0 102712
25 апреля, вс
вс2523:00+1в33885 0.0 102837
02:000в46955 0.0 1029105
05:00−1вюв579894 0.0 1029213
08:00+1вюв5691100 0.0 1029428
11:00+2юв6783100 0.0 1029560
14:00+5юв567272 0.0 1028751
17:00+7вюв666518 0.0 1026896
20:00+3юв6108196 0.0 1025160
26 апреля, пн
пн2623:00+4юв5874100 0.0 1024137
02:00+3юв5881100 0.0 1022170
05:00+2юв598899 0.0 1020264
08:00+3юв798695 0.0 1018512
11:00+5юв687339 0.0 1016660
14:00+10юв8105098 0.1 10121840
17:00+9ююв91053100 0.1 10101618
20:00+6ююв61083100 0.4 1008825